Change the Weather History Date:

Sunday, November 11, 2012

  Actual Average (KCEW) Record (KCEW)
Temperature  
Mean Temperature 60 °F -  
Max Temperature 75 °F 70 °F 82 °F (1949)
Min Temperature 46 °F 44 °F 29 °F (1991)
Degree Days  
Heating Degree Days 4    
Growing Degree Days 10 (Base 50)    
Moisture  
Dew Point 50 °F    
Average Humidity 69    
Maximum Humidity 93    
Minimum Humidity 43    
Precipitation  
Precipitation 0.00 in - - ()
Sea Level Pressure  
Sea Level Pressure 30.27 in    
Wind  
Wind Speed 3 mph (SE)    
Max Wind Speed 12 mph    
Max Gust Speed 20 mph    
Visibility 10 miles    
Events      
Averages and records for this station are not official NWS values.
T = Trace of Precipitation, MM = Missing Value Source: NWS Daily Summary

Daily Weather History Graph

Daily Weather History Graph

Search for Another Location

Airport or City:

Trip Planner

Search our weather history database for the weather conditions in past years. The results will help you decide how hot, cold, wet, or windy it might be!

Date:

Astronomy

Nov. 11, 2012 Rise Set
Actual Time 6:09 AM CST 4:49 PM CST
Civil Twilight 5:43 AM CST 5:14 PM CST
Nautical Twilight 5:14 AM CST 5:43 PM CST
Astronomical Twilight 4:46 AM CST 6:12 PM CST
Moon 3:30 AM CST (11/11) 3:06 PM CST (11/11)
Length of Visible Light 11h 30m
Length of Day
10h 39m
Waning Crescent, 7% of the Moon is Illuminated
Nov 11
Waning Crescent
Nov 13
New
Nov 20
First Quarter
Nov 28
Full
Dec 6
Last Quarter

Hourly Weather History & Observations

Time (CST) Temp. Dew Point Humidity Pressure Visibility Wind Dir Wind Speed Gust Speed Precip Events Conditions
12:58 AM 48.9 °F 46.9 °F 93% 30.28 in 10.0 mi Calm Calm - N/A   Clear
1:58 AM 48.9 °F 46.0 °F 90% 30.28 in 10.0 mi Calm Calm - N/A   Clear
2:58 AM 50.0 °F 45.0 °F 83% 30.27 in 10.0 mi Calm Calm - N/A   Clear
3:58 AM 46.9 °F 43.0 °F 86% 30.26 in 10.0 mi East 3.5 mph - N/A   Clear
4:58 AM 46.9 °F 41.0 °F 80% 30.29 in 10.0 mi Calm Calm - N/A   Clear
5:58 AM 50.0 °F 42.1 °F 74% 30.32 in 10.0 mi East 3.5 mph - N/A   Overcast
6:58 AM 50.0 °F 43.0 °F 77% 30.31 in 10.0 mi East 4.6 mph - N/A   Clear
7:58 AM 54.0 °F 46.9 °F 77% 30.33 in 10.0 mi ESE 6.9 mph - N/A   Partly Cloudy
8:58 AM 63.0 °F 53.1 °F 70% 30.35 in 10.0 mi ESE 5.8 mph - N/A   Clear
9:58 AM 69.1 °F 54.0 °F 58% 30.33 in 10.0 mi SE 9.2 mph - N/A   Scattered Clouds
10:58 AM 73.9 °F 54.0 °F 50% 30.30 in 10.0 mi SSE 9.2 mph 17.3 mph N/A   Clear
11:58 AM 73.9 °F 53.1 °F 48% 30.28 in 10.0 mi SE 10.4 mph 19.6 mph N/A   Scattered Clouds
12:58 PM 75.0 °F 52.0 °F 44% 30.26 in 10.0 mi SSE 11.5 mph 19.6 mph N/A   Mostly Cloudy
1:58 PM 75.9 °F 52.0 °F 43% 30.25 in 10.0 mi SSE 11.5 mph 18.4 mph N/A   Scattered Clouds
2:58 PM 75.9 °F 52.0 °F 43% 30.25 in 10.0 mi SSE 10.4 mph 19.6 mph N/A   Scattered Clouds
3:58 PM 73.9 °F 53.1 °F 48% 30.24 in 10.0 mi SSE 8.1 mph - N/A   Mostly Cloudy
4:58 PM 68.0 °F 55.0 °F 63% 30.24 in 10.0 mi SSE 3.5 mph - N/A   Clear
5:58 PM 66.0 °F 54.0 °F 65% 30.25 in 10.0 mi Calm Calm - N/A   Clear
6:58 PM 63.0 °F 53.1 °F 70% 30.25 in 10.0 mi SSE 3.5 mph - N/A   Clear
7:58 PM 62.1 °F 52.0 °F 70% 30.26 in 10.0 mi Calm Calm - N/A   Clear
8:58 PM 61.0 °F 53.1 °F 75% 30.26 in 10.0 mi Calm Calm - N/A   Clear
9:58 PM 57.9 °F 52.0 °F 81% 30.25 in 10.0 mi Calm Calm - N/A   Clear
10:58 PM 60.1 °F 53.1 °F 78% 30.25 in 10.0 mi Calm Calm - N/A   Overcast
11:58 PM 59.0 °F 53.1 °F 81% 30.24 in 10.0 mi Calm Calm - N/A   Mostly Cloudy